Flag for Canada Weather past 2 weeks in Taloyoak, Nunavut, Canada

Now
43 °F

Partly sunny.


Feels Like: 33 °F
Forecast: N/A
Wind: 24 mph from Northeast

Location: Spence Bay Airport

Current Time: Jul 7, 2015 at 2:52:04 PM

Latest Report: Jul 7, 2015 at 2:00 PM


Visibility: 15 mi

Pressure: 29.79 "Hg

Humidity: 76%

Dew point: 36 °F

Location of TaloyoakLocation

Historic Weather in Taloyoak — Graph

°F

Taloyoak temperature yesterday

Maximum temperature yesterday: 54 °F (at 3:00 PM)
Minimum temperature yesterday: 39 °F (at 11:00 PM)
Average temperature yesterday: 46 °F

Past Weeks' High & Low Weather Summary

 TemperatureHumidityPressure
High59 °F (Jun 30, 11:00 AM)100% (Jun 23, 12:00 AM)30.05 "Hg (Jun 23, 12:00 AM)
Low32 °F (Jun 23, 12:00 AM)41% (Jun 29, 12:00 PM)29.46 "Hg (Jun 24, 2:00 PM)
Average44 °F77%29.83 "Hg
* Reported Jun 22 1:00 PM — Jul 7 1:00 PM, Taloyoak, Weather by CustomWeather, © 2015

Note: Actual official high and low records may vary slightly from our data, if they occured in-between our weather recording intervals... More about our weather records

Advertising

Taloyoak weather history for previous 24 hours

 ConditionsComfort  
Time TempWeatherWind HumidityBarometerVisibility
1:00 PM
Tue, Jul 7
48 °FPartly sunny.18 mph71%29.78 "Hg15 mi
12:00 PM50 °FBroken clouds.15 mph71%29.79 "Hg15 mi
11:00 AM48 °FScattered clouds.15 mph71%29.78 "Hg15 mi
10:00 AM48 °FPartly sunny.10 mph76%29.79 "Hg15 mi
9:00 AM45 °FPartly sunny.13 mph81%29.79 "Hg15 mi
8:00 AM41 °FPartly sunny.14 mph87%29.77 "Hg15 mi
7:00 AM41 °FPartly sunny.10 mph87%29.78 "Hg15 mi
6:00 AM37 °FLow clouds.8 mph93%29.77 "Hg15 mi
5:00 AM37 °FLow clouds.10 mph93%29.77 "Hg15 mi
4:00 AM37 °FLow clouds.8 mph93%29.77 "Hg15 mi
3:00 AM37 °FPartly sunny.14 mph93%29.76 "Hg15 mi
2:00 AM37 °FBroken clouds.16 mph100%29.75 "Hg15 mi
1:00 AM39 °FDrizzle. Fog.16 mph93%29.76 "Hg10 mi
12:00 AM39 °FLight rain. Partly sunny.16 mph93%29.78 "Hg15 mi
11:00 PM
Mon, Jul 6
39 °FPartly sunny.17 mph87%29.77 "Hg15 mi
10:00 PM41 °FPartly sunny.14 mph87%29.78 "Hg15 mi
9:00 PM43 °FBroken clouds.9 mph87%29.80 "Hg15 mi
8:00 PM43 °FPartly sunny.9 mph81%29.80 "Hg15 mi
7:00 PM46 °FBroken clouds.12 mph76%29.81 "Hg15 mi
6:00 PM50 °FBroken clouds.12 mph71%29.81 "Hg15 mi
5:00 PM52 °FBroken clouds.10 mph72%29.81 "Hg15 mi
4:00 PM52 °FBroken clouds.10 mph72%29.81 "Hg15 mi
3:00 PM54 °FPartly sunny.9 mph67%29.81 "Hg15 mi
2:00 PM52 °FPartly sunny.6 mph77%29.81 "Hg15 mi
Weather by CustomWeather, © 2015

See weather overviewHow to use our weather pages